RYR47HU EHAM-EIDW

Flight info

Callsign RYR47HU
Flight time 1h 12m
Altitude 34000
Route BERGI L60 PENIL UL28 LELDO M145 BAGSO BAGSO3R
Aircraft B738/M-SDE2E3FGHIRWXY/LB1

Departure

Time 2026-04-30 09:25
Airport Amsterdam Airport Schiphol (EHAM)

Arrival

Time 2026-04-30 10:37
Airport Dublin Airport (EIDW)
Time Latitude Longitude Altitude Speed Heading
2026-04-30 09:03 52.30969 4.75294 3 ft 0 kts 147°
2026-04-30 09:15 52.30969 4.75293 2 ft 0 kts 147°
2026-04-30 09:15 52.30976 4.75287 2 ft 2 kts 147°
2026-04-30 09:15 52.30988 4.75274 2 ft 2 kts 147°
2026-04-30 09:16 52.30996 4.75265 1 ft 2 kts 148°
2026-04-30 09:16 52.31004 4.75246 1 ft 2 kts 90°
2026-04-30 09:16 52.31002 4.75230 1 ft 1 kts 56°
2026-04-30 09:16 52.30998 4.75221 0 ft 0 kts 57°
2026-04-30 09:19 52.30998 4.75222 0 ft 1 kts 57°
2026-04-30 09:19 52.31037 4.75284 2 ft 12 kts 32°
2026-04-30 09:19 52.31100 4.75371 1 ft 11 kts 57°
2026-04-30 09:19 52.31144 4.75456 2 ft 9 kts 21°
2026-04-30 09:20 52.31244 4.75457 2 ft 18 kts 357°
2026-04-30 09:20 52.31370 4.75445 1 ft 17 kts 357°
2026-04-30 09:20 52.31432 4.75535 3 ft 11 kts 81°
2026-04-30 09:20 52.31437 4.75660 3 ft 12 kts 87°
2026-04-30 09:21 52.31445 4.75895 0 ft 26 kts 88°
2026-04-30 09:21 52.31454 4.76185 1 ft 24 kts 87°
2026-04-30 09:21 52.31465 4.76455 1 ft 22 kts 85°
2026-04-30 09:21 52.31472 4.76707 0 ft 21 kts 87°
2026-04-30 09:22 52.31480 4.76943 2 ft 19 kts 86°
2026-04-30 09:22 52.31490 4.77143 3 ft 16 kts 79°
2026-04-30 09:22 52.31568 4.77245 1 ft 14 kts 59°
2026-04-30 09:22 52.31611 4.77387 0 ft 13 kts 57°
2026-04-30 09:23 52.31666 4.77526 0 ft 21 kts 57°
2026-04-30 09:23 52.31786 4.77694 -3 ft 23 kts
2026-04-30 09:23 52.31942 4.77708 -3 ft 21 kts
2026-04-30 09:23 52.32070 4.77817 -5 ft 20 kts 41°
2026-04-30 09:24 52.32108 4.77987 -5 ft 15 kts 146°
2026-04-30 09:24 52.31946 4.77999 -5 ft 45 kts 182°
2026-04-30 09:24 52.31400 4.77947 -2 ft 109 kts 184°
2026-04-30 09:24 52.30458 4.77857 0 ft 160 kts 183°
2026-04-30 09:25 52.29251 4.77739 294 ft 177 kts 180°
2026-04-30 09:25 52.28080 4.77662 1160 ft 164 kts 167°
2026-04-30 09:25 52.27009 4.78180 1700 ft 164 kts 152°
2026-04-30 09:25 52.25910 4.78809 2175 ft 171 kts 156°
2026-04-30 09:26 52.24727 4.79365 2481 ft 186 kts 158°
2026-04-30 09:26 52.23370 4.79771 2774 ft 210 kts 173°
2026-04-30 09:26 52.21876 4.79132 3176 ft 237 kts 204°
2026-04-30 09:26 52.20649 4.77249 3802 ft 252 kts 229°
2026-04-30 09:27 52.19886 4.74544 4154 ft 277 kts 258°
2026-04-30 09:27 52.19935 4.71337 4557 ft 292 kts 280°
2026-04-30 09:27 52.20431 4.68081 5077 ft 299 kts 286°
2026-04-30 09:27 52.20997 4.64827 5744 ft 300 kts 285°
2026-04-30 09:28 52.21521 4.61550 6412 ft 301 kts 283°
2026-04-30 09:28 52.22060 4.58268 7064 ft 304 kts 289°
2026-04-30 09:28 52.22980 4.55153 7684 ft 306 kts 310°
2026-04-30 09:28 52.24507 4.52891 8366 ft 300 kts 330°
2026-04-30 09:29 52.26316 4.51133 9030 ft 302 kts 335°
2026-04-30 09:29 52.28147 4.49501 9703 ft 304 kts 335°
2026-04-30 09:29 52.29997 4.47804 10388 ft 306 kts 334°
2026-04-30 09:29 52.31885 4.45998 10798 ft 318 kts 333°
2026-04-30 09:30 52.33806 4.44114 11193 ft 332 kts 333°
2026-04-30 09:30 52.35903 4.42311 11506 ft 345 kts 342°
2026-04-30 09:30 52.38237 4.41296 11830 ft 353 kts 356°
2026-04-30 09:30 52.40727 4.40868 12223 ft 363 kts
2026-04-30 09:31 52.43229 4.40614 12897 ft 365 kts
2026-04-30 09:31 52.45766 4.40354 13603 ft 368 kts
2026-04-30 09:31 52.48342 4.40046 14273 ft 372 kts
2026-04-30 09:31 52.50913 4.39694 14988 ft 375 kts 359°
2026-04-30 09:32 52.53524 4.39306 15653 ft 379 kts 359°
2026-04-30 09:32 52.56156 4.38897 16327 ft 382 kts 358°
2026-04-30 09:32 52.58784 4.38480 16949 ft 386 kts 358°
2026-04-30 09:32 52.61486 4.38049 17616 ft 388 kts 358°
2026-04-30 09:33 52.64160 4.37620 18247 ft 391 kts 358°
2026-04-30 09:33 52.66873 4.37166 18857 ft 395 kts 356°
2026-04-30 09:33 52.69588 4.36299 19502 ft 401 kts 347°
2026-04-30 09:33 52.72206 4.34587 20083 ft 409 kts 335°
2026-04-30 09:34 52.74625 4.32052 20668 ft 415 kts 324°
2026-04-30 09:34 52.76741 4.28806 21263 ft 420 kts 314°
2026-04-30 09:34 52.78493 4.24965 21757 ft 427 kts 303°
2026-04-30 09:34 52.79820 4.20609 22358 ft 430 kts 293°
2026-04-30 09:35 52.80713 4.15831 22861 ft 435 kts 284°
2026-04-30 09:35 52.81317 4.10964 23356 ft 439 kts 282°
2026-04-30 09:35 52.81884 4.06003 23871 ft 440 kts 283°
2026-04-30 09:35 52.82525 4.00982 24294 ft 444 kts 284°
2026-04-30 09:36 52.83256 3.96023 24752 ft 447 kts 286°
2026-04-30 09:36 52.84071 3.91091 25179 ft 450 kts 287°
2026-04-30 09:36 52.84964 3.86092 25648 ft 452 kts 288°
2026-04-30 09:36 52.85885 3.81168 26061 ft 456 kts 289°
2026-04-30 09:37 52.86857 3.76113 26552 ft 457 kts 289°
2026-04-30 09:37 52.87830 3.71118 26916 ft 461 kts 289°
2026-04-30 09:37 52.88817 3.66081 27407 ft 462 kts 289°
2026-04-30 09:37 52.89818 3.60970 27808 ft 465 kts 289°
2026-04-30 09:38 52.90812 3.55893 28162 ft 469 kts 289°
2026-04-30 09:38 52.91816 3.50751 28566 ft 471 kts 289°
2026-04-30 09:38 52.92827 3.45549 29026 ft 471 kts 289°
2026-04-30 09:38 52.93774 3.40664 29638 ft 468 kts 289°
2026-04-30 09:39 52.94763 3.35543 30162 ft 467 kts 289°
2026-04-30 09:39 52.95752 3.30409 30626 ft 466 kts 288°
2026-04-30 09:39 52.96725 3.25346 31155 ft 464 kts 288°
2026-04-30 09:39 52.97695 3.20279 31606 ft 463 kts 288°
2026-04-30 09:40 52.98669 3.15186 32055 ft 462 kts 288°
2026-04-30 09:40 52.99630 3.10142 32476 ft 461 kts 288°
2026-04-30 09:40 53.00592 3.05081 32875 ft 461 kts 288°
2026-04-30 09:40 53.01555 3.00000 33274 ft 460 kts 288°
2026-04-30 09:41 53.02513 2.94937 33674 ft 459 kts 288°
2026-04-30 09:41 53.03458 2.89924 34024 ft 459 kts 288°
2026-04-30 09:41 53.04386 2.84988 34341 ft 459 kts 287°
2026-04-30 09:41 53.05344 2.79880 34364 ft 464 kts 287°
2026-04-30 09:42 53.07246 2.69695 34377 ft 475 kts 287°
2026-04-30 09:42 53.09213 2.59108 34374 ft 483 kts 287°
2026-04-30 09:43 53.11006 2.48355 34376 ft 483 kts 282°
2026-04-30 09:43 53.12120 2.37472 34379 ft 482 kts 278°
2026-04-30 09:44 53.12966 2.26494 34377 ft 482 kts 276°
2026-04-30 09:44 53.13784 2.15425 34373 ft 481 kts 276°
2026-04-30 09:45 53.14619 2.04414 34377 ft 480 kts 276°
2026-04-30 09:45 53.15466 1.93418 34369 ft 481 kts 276°
2026-04-30 09:46 53.16323 1.82345 34353 ft 482 kts 276°
2026-04-30 09:46 53.17172 1.71294 34358 ft 482 kts 276°
2026-04-30 09:47 53.18014 1.60210 34359 ft 482 kts 276°
2026-04-30 09:47 53.18842 1.49173 34352 ft 482 kts 276°
2026-04-30 09:48 53.19662 1.38088 34352 ft 482 kts 276°
2026-04-30 09:48 53.20470 1.27035 34349 ft 482 kts 275°
2026-04-30 09:49 53.21273 1.15910 34348 ft 482 kts 275°
2026-04-30 09:49 53.22067 1.04750 34342 ft 481 kts 275°
2026-04-30 09:50 53.22838 0.93762 34351 ft 481 kts 275°
2026-04-30 09:50 53.23607 0.82651 34346 ft 482 kts 275°
2026-04-30 09:51 53.24363 0.71585 34344 ft 483 kts 275°
2026-04-30 09:51 53.25106 0.60552 34336 ft 483 kts 274°
2026-04-30 09:52 53.25837 0.49550 34340 ft 483 kts 274°
2026-04-30 09:52 53.26561 0.38478 34325 ft 484 kts 274°
2026-04-30 09:53 53.27272 0.27444 34329 ft 482 kts 273°
2026-04-30 09:53 53.27971 0.16450 34327 ft 483 kts 273°
2026-04-30 09:54 53.28672 0.05259 34336 ft 483 kts 273°
2026-04-30 09:54 53.29538 -0.05865 34324 ft 485 kts 277°
2026-04-30 09:55 53.30708 -0.16895 34325 ft 486 kts 278°
2026-04-30 09:55 53.31939 -0.27988 34323 ft 486 kts 278°
2026-04-30 09:56 53.33119 -0.39015 34321 ft 486 kts 277°
2026-04-30 09:56 53.34262 -0.50111 34318 ft 486 kts 277°
2026-04-30 09:57 53.35374 -0.61180 34315 ft 487 kts 277°
2026-04-30 09:57 53.36419 -0.71749 34309 ft 487 kts 276°
2026-04-30 09:58 53.37537 -0.83112 34309 ft 486 kts 276°
2026-04-30 09:58 53.38613 -0.94201 34298 ft 486 kts 275°
2026-04-30 09:59 53.40716 -1.16276 34289 ft 487 kts 275°
2026-04-30 10:00 53.42273 -1.32887 34272 ft 488 kts 275°
2026-04-30 10:01 53.43816 -1.49611 34284 ft 486 kts 275°
2026-04-30 10:02 53.45320 -1.66178 34273 ft 488 kts 274°
2026-04-30 10:02 53.46291 -1.77016 34264 ft 486 kts 274°
2026-04-30 10:03 53.47279 -1.88170 34265 ft 486 kts 274°
2026-04-30 10:03 53.48248 -1.99235 34254 ft 487 kts 274°
2026-04-30 10:04 53.49204 -2.10264 34257 ft 486 kts 274°
2026-04-30 10:04 53.50148 -2.21268 34259 ft 487 kts 274°
2026-04-30 10:05 53.51099 -2.32486 34260 ft 487 kts 274°
2026-04-30 10:05 53.52036 -2.43667 34263 ft 487 kts 274°
2026-04-30 10:06 53.52956 -2.54798 34258 ft 488 kts 274°
2026-04-30 10:06 53.53872 -2.66001 34259 ft 488 kts 273°
2026-04-30 10:07 53.54782 -2.77241 34256 ft 489 kts 273°
2026-04-30 10:07 53.55683 -2.88493 34245 ft 488 kts 273°
2026-04-30 10:08 53.56573 -2.99791 34254 ft 489 kts 273°
2026-04-30 10:08 53.57449 -3.11028 34259 ft 488 kts 273°
2026-04-30 10:09 53.58319 -3.22295 34251 ft 486 kts 273°
2026-04-30 10:09 53.59176 -3.33609 34246 ft 487 kts 273°
2026-04-30 10:10 53.60014 -3.44809 34242 ft 485 kts 274°
2026-04-30 10:10 53.60846 -3.56036 34233 ft 486 kts 274°
2026-04-30 10:11 53.62003 -3.67203 34217 ft 489 kts 280°
2026-04-30 10:11 53.64151 -3.78102 34222 ft 490 kts 288°
2026-04-30 10:12 53.66719 -3.88661 34213 ft 487 kts 289°
2026-04-30 10:12 53.68005 -3.93799 34129 ft 475 kts 289°
2026-04-30 10:12 53.69268 -3.98886 33754 ft 467 kts 289°
2026-04-30 10:12 53.70473 -4.03897 33406 ft 459 kts 288°
2026-04-30 10:13 53.71448 -4.08906 32924 ft 451 kts 280°
2026-04-30 10:13 53.72015 -4.13935 32401 ft 444 kts 274°
2026-04-30 10:13 53.72320 -4.18783 31895 ft 440 kts 270°
2026-04-30 10:13 53.72519 -4.23953 31350 ft 436 kts 269°
2026-04-30 10:14 53.72656 -4.28990 30820 ft 433 kts 268°
2026-04-30 10:14 53.72772 -4.33692 30315 ft 430 kts 268°
2026-04-30 10:14 53.73049 -4.43881 29228 ft 424 kts 269°
2026-04-30 10:15 53.73200 -4.48846 28681 ft 422 kts 269°
2026-04-30 10:15 53.73358 -4.53771 28152 ft 419 kts 269°
2026-04-30 10:15 53.73521 -4.58669 27638 ft 416 kts 269°
2026-04-30 10:15 53.73684 -4.63527 27118 ft 413 kts 269°
2026-04-30 10:16 53.73844 -4.68282 26599 ft 411 kts 268°
2026-04-30 10:16 53.74006 -4.73088 26077 ft 408 kts 268°
2026-04-30 10:16 53.74165 -4.77883 25555 ft 405 kts 268°
2026-04-30 10:17 53.74472 -4.87351 24532 ft 401 kts 268°
2026-04-30 10:17 53.74773 -4.96674 23527 ft 397 kts 268°
2026-04-30 10:17 53.74921 -5.01330 23018 ft 396 kts 268°
2026-04-30 10:18 53.75065 -5.05929 22513 ft 395 kts 267°
2026-04-30 10:18 53.75135 -5.10602 22006 ft 390 kts 263°
2026-04-30 10:18 53.74917 -5.15125 21503 ft 383 kts 254°
2026-04-30 10:19 53.73550 -5.23588 20508 ft 372 kts 245°
2026-04-30 10:19 53.72700 -5.27664 20017 ft 369 kts 244°
2026-04-30 10:19 53.71825 -5.31752 19519 ft 368 kts 244°
2026-04-30 10:19 53.70959 -5.35812 19034 ft 365 kts 244°
2026-04-30 10:20 53.70114 -5.39813 18549 ft 364 kts 244°
2026-04-30 10:20 53.68449 -5.47818 17585 ft 360 kts 245°
2026-04-30 10:20 53.67680 -5.51839 17107 ft 361 kts 248°
2026-04-30 10:21 53.67075 -5.55912 16636 ft 361 kts 252°
2026-04-30 10:21 53.66552 -5.60095 16147 ft 360 kts 253°
2026-04-30 10:21 53.66060 -5.64216 15671 ft 359 kts 253°
2026-04-30 10:21 53.65561 -5.68332 15192 ft 357 kts 252°
2026-04-30 10:22 53.65051 -5.72399 14717 ft 355 kts 251°
2026-04-30 10:22 53.64532 -5.76425 14244 ft 353 kts 251°
2026-04-30 10:22 53.63997 -5.80496 13765 ft 351 kts 250°
2026-04-30 10:22 53.63465 -5.84497 13294 ft 349 kts 251°
2026-04-30 10:23 53.62935 -5.88461 12841 ft 348 kts 251°
2026-04-30 10:23 53.62409 -5.92391 12375 ft 346 kts 251°
2026-04-30 10:23 53.61876 -5.96371 11895 ft 344 kts 251°
2026-04-30 10:23 53.61354 -6.00257 11445 ft 342 kts 251°
2026-04-30 10:24 53.60832 -6.04143 10975 ft 340 kts 251°
2026-04-30 10:24 53.60307 -6.08037 10522 ft 338 kts 251°
2026-04-30 10:24 53.59793 -6.11839 10193 ft 332 kts 251°
2026-04-30 10:24 53.59294 -6.15553 10032 ft 319 kts 252°
2026-04-30 10:25 53.58806 -6.19172 9694 ft 315 kts 251°
2026-04-30 10:25 53.58309 -6.22788 9244 ft 315 kts 251°
2026-04-30 10:25 53.57819 -6.26341 8854 ft 313 kts 251°
2026-04-30 10:25 53.57393 -6.29951 8433 ft 316 kts 261°
2026-04-30 10:26 53.57517 -6.33625 8197 ft 310 kts 276°
2026-04-30 10:26 53.57909 -6.37059 8163 ft 291 kts 278°
2026-04-30 10:26 53.58335 -6.40356 7935 ft 282 kts 279°
2026-04-30 10:26 53.58756 -6.43542 7641 ft 276 kts 279°
2026-04-30 10:27 53.59166 -6.46645 7323 ft 271 kts 278°
2026-04-30 10:27 53.59454 -6.49743 7001 ft 265 kts 271°
2026-04-30 10:27 53.59594 -6.52828 6657 ft 262 kts 269°
2026-04-30 10:27 53.59554 -6.55835 6267 ft 255 kts 255°
2026-04-30 10:28 53.59172 -6.58708 5917 ft 248 kts 249°
2026-04-30 10:28 53.58731 -6.61472 5530 ft 244 kts 248°
2026-04-30 10:28 53.58055 -6.63946 5263 ft 225 kts 225°
2026-04-30 10:28 53.56896 -6.65432 5013 ft 198 kts 188°
2026-04-30 10:29 53.55595 -6.65760 4829 ft 183 kts 178°
2026-04-30 10:29 53.54348 -6.65969 4615 ft 179 kts 180°
2026-04-30 10:29 53.53127 -6.66262 4419 ft 174 kts 181°
2026-04-30 10:29 53.51947 -6.66570 4211 ft 171 kts 181°
2026-04-30 10:30 53.50758 -6.66877 4016 ft 171 kts 181°
2026-04-30 10:30 53.49605 -6.67174 3967 ft 168 kts 181°
2026-04-30 10:30 53.48439 -6.67469 3970 ft 171 kts 180°
2026-04-30 10:30 53.47272 -6.67417 3960 ft 163 kts 156°
2026-04-30 10:31 53.46376 -6.66381 3968 ft 161 kts 127°
2026-04-30 10:31 53.45933 -6.64640 3971 ft 164 kts 109°
2026-04-30 10:31 53.45687 -6.62768 3967 ft 166 kts 105°
2026-04-30 10:31 53.45517 -6.60878 3966 ft 160 kts 103°
2026-04-30 10:32 53.45396 -6.59047 3947 ft 157 kts 102°
2026-04-30 10:32 53.45284 -6.57197 3764 ft 160 kts 101°
2026-04-30 10:32 53.45180 -6.55364 3510 ft 158 kts 101°
2026-04-30 10:32 53.45081 -6.53528 3293 ft 156 kts 101°
2026-04-30 10:33 53.44984 -6.51715 3080 ft 155 kts 100°
2026-04-30 10:33 53.44890 -6.49932 2863 ft 156 kts 99°
2026-04-30 10:33 53.44793 -6.48124 2644 ft 154 kts 98°
2026-04-30 10:33 53.44699 -6.46337 2433 ft 154 kts 98°
2026-04-30 10:34 53.44600 -6.44547 2221 ft 154 kts 97°
2026-04-30 10:34 53.44506 -6.42772 2008 ft 153 kts 96°
2026-04-30 10:34 53.44415 -6.41003 1800 ft 152 kts 96°
2026-04-30 10:34 53.44324 -6.39305 1644 ft 135 kts 96°
2026-04-30 10:35 53.44237 -6.37742 1381 ft 134 kts 95°
2026-04-30 10:35 53.44154 -6.36193 1251 ft 136 kts 95°
2026-04-30 10:35 53.44061 -6.34598 1046 ft 137 kts 96°
2026-04-30 10:35 53.43977 -6.32986 847 ft 140 kts 94°
2026-04-30 10:36 53.43896 -6.31334 662 ft 141 kts 96°
2026-04-30 10:36 53.43800 -6.29723 471 ft 142 kts 95°
2026-04-30 10:36 53.43715 -6.28089 287 ft 142 kts 93°
2026-04-30 10:36 53.43639 -6.26542 226 ft 106 kts 96°
2026-04-30 10:37 53.43588 -6.25694 214 ft 55 kts 96°
2026-04-30 10:37 53.43494 -6.25130 209 ft 36 kts 119°
2026-04-30 10:37 53.43395 -6.25005 209 ft 13 kts 220°
2026-04-30 10:37 53.43386 -6.25143 209 ft 11 kts 276°
2026-04-30 10:38 53.43393 -6.25272 210 ft 9 kts 275°
2026-04-30 10:38 53.43398 -6.25364 211 ft 7 kts 275°
2026-04-30 10:38 53.43407 -6.25517 212 ft 16 kts 275°
2026-04-30 10:38 53.43374 -6.25648 215 ft 11 kts 192°
2026-04-30 10:39 53.43297 -6.25610 214 ft 12 kts 163°
2026-04-30 10:39 53.43178 -6.25536 213 ft 20 kts 157°
2026-04-30 10:39 53.43047 -6.25444 212 ft 20 kts 157°
2026-04-30 10:39 53.42948 -6.25332 211 ft 15 kts 98°
2026-04-30 10:40 53.42964 -6.25164 209 ft 14 kts 95°
2026-04-30 10:40 53.42994 -6.25080 209 ft 7 kts
2026-04-30 10:40 53.43016 -6.25076 209 ft 0 kts